Weather History for Lima, OH

Change the Weather History Date:

Wednesday, January 16, 2013

  Actual Average (KFDY) Record (KFDY)
Temperature  
Mean Temperature 30 °F -  
Max Temperature 34 °F 30 °F 56 °F (1949)
Min Temperature 27 °F 14 °F -17 °F (1972)
Degree Days  
Heating Degree Days 34    
Moisture  
Dew Point 23 °F    
Average Humidity 73    
Maximum Humidity 89    
Minimum Humidity 61    
Precipitation  
Precipitation 0.00 in - - ()
Sea Level Pressure  
Sea Level Pressure 30.01 in    
Wind  
Wind Speed 8 mph (WSW)    
Max Wind Speed 18 mph    
Max Gust Speed 25 mph    
Visibility 9 miles    
Events      
Averages and records for this station are not official NWS values.
T = Trace of Precipitation, MM = Missing Value Source: NWS Daily Summary

Daily Weather History Graph

Daily Weather History Graph

Search for Another Location

Airport:

Trip Planner

Search our weather history database for the weather conditions in past years. The results will help you decide how hot, cold, wet, or windy it might be!

Date:

Astronomy

Jan. 16, 2013 Rise Set
Actual Time 7:57 AM EST 5:34 PM EST
Civil Twilight 7:27 AM EST 6:04 PM EST
Nautical Twilight 6:53 AM EST 6:38 PM EST
Astronomical Twilight 6:21 AM EST 7:11 PM EST
Moon 10:31 AM EST (1/16) 11:27 PM EST (1/16)
Length of Visible Light 10h 37m
Length of Day
9h 37m
Waxing Crescent, 28% of the Moon is Illuminated
Jan 16
Waxing Crescent
Jan 18
First Quarter
Jan 26
Full
Feb 3
Last Quarter
Feb 10
New

Hourly Weather History & Observations

Time (EST) Temp. Windchill Dew Point Humidity Pressure Visibility Wind Dir Wind Speed Gust Speed Precip Events Conditions
12:53 AM 28.0 °F 22.8 °F 21.9 °F 78% 30.10 in 10.0 mi ENE 4.6 mph - N/A   Overcast
1:53 AM 28.0 °F 22.8 °F 21.9 °F 78% 30.08 in 10.0 mi NE 4.6 mph - N/A   Overcast
2:53 AM 28.9 °F - 21.9 °F 75% 30.08 in 10.0 mi Calm Calm - N/A   Overcast
3:53 AM 28.0 °F - 21.9 °F 78% 30.04 in 10.0 mi Calm Calm - N/A   Partly Cloudy
4:53 AM 28.0 °F - 23.0 °F 81% 30.04 in 10.0 mi Calm Calm - N/A   Overcast
5:53 AM 27.0 °F - 24.1 °F 89% 30.01 in 10.0 mi Calm Calm - N/A   Mostly Cloudy
7:53 AM 28.0 °F 24.2 °F 24.1 °F 85% 30.01 in 8.0 mi SSW 3.5 mph - N/A   Mostly Cloudy
8:53 AM 27.0 °F 21.6 °F 24.1 °F 89% 29.99 in 5.0 mi WSW 4.6 mph - N/A   Partly Cloudy
9:53 AM 28.9 °F 19.8 °F 24.1 °F 82% 30.01 in 6.0 mi WSW 10.4 mph - N/A   Haze
10:53 AM 28.9 °F 18.6 °F 25.0 °F 85% 30.01 in 6.0 mi WSW 12.7 mph - N/A   Partly Cloudy
11:33 AM 30.2 °F 18.9 °F 24.8 °F 80% 29.97 in 6.0 mi West 16.1 mph - N/A   Haze
11:49 AM 30.2 °F 20.2 °F 24.8 °F 80% 29.95 in 6.0 mi West 12.7 mph - N/A   Haze
11:53 AM 30.9 °F 22.2 °F 24.1 °F 76% 29.99 in 6.0 mi WSW 10.4 mph - N/A   Haze
12:53 PM 33.1 °F 23.0 °F 24.1 °F 70% 29.96 in 8.0 mi WSW 15.0 mph - N/A   Clear
1:53 PM 34.0 °F 23.4 °F 21.9 °F 61% 29.94 in 10.0 mi SW 17.3 mph - N/A   Clear
3:53 PM 34.0 °F 24.6 °F 21.9 °F 61% 29.94 in 10.0 mi SW 13.8 mph - N/A   Clear
4:53 PM 33.1 °F 23.9 °F 21.9 °F 64% 29.96 in 10.0 mi SW 12.7 mph - N/A   Clear
5:53 PM 33.1 °F 23.4 °F 21.0 °F 61% 29.98 in 10.0 mi SW 13.8 mph 20.7 mph N/A   Clear
6:53 PM 32.0 °F 22.1 °F 21.0 °F 64% 29.99 in 10.0 mi SW 13.8 mph - N/A   Clear
7:53 PM 32.0 °F 22.1 °F 21.9 °F 66% 30.00 in 10.0 mi SW 13.8 mph 21.9 mph N/A   Clear
8:53 PM 32.0 °F 21.6 °F 21.0 °F 64% 30.00 in 10.0 mi SW 15.0 mph - N/A   Scattered Clouds
9:41 PM 32.0 °F 22.1 °F 21.2 °F 64% 29.99 in 10.0 mi SW 13.8 mph - N/A   Overcast
9:53 PM 33.1 °F 21.9 °F 21.0 °F 61% 30.03 in 10.0 mi SW 18.4 mph 23.0 mph N/A   Overcast
10:53 PM 33.1 °F 23.9 °F 21.9 °F 64% 30.04 in 10.0 mi WSW 12.7 mph - N/A   Overcast
11:51 PM 32.0 °F 20.8 °F 23.0 °F 69% 30.02 in 10.0 mi WSW 17.3 mph 25.3 mph N/A   Overcast
11:53 PM 32.0 °F 21.2 °F 23.0 °F 69% 30.05 in 10.0 mi West 16.1 mph 25.3 mph N/A   Overcast